"2009-11-09 00:00:00",1399966,6.334,171.4,4.02,0.796,10.78,104.0552,9.66,10.74,35.83,0,110.1,13.39,10.44,133.4
"2009-11-09 00:00:30",1399967,8.04,178.8,5.94,1.126,12.96,104.0532,9.65,10.72,35.84,0,110.1,13.39,10.44,140.8
"2009-11-09 00:01:00",1399968,6.475,171.7,5.159,0.971,11.37,104.0495,9.64,10.76,35.9,0,110.1,13.39,10.43,133.7
"2009-11-09 00:01:30",1399969,6.898,173,5.844,1.195,11.73,104.0433,9.62,10.61,35.7,0,110.1,13.39,10.41,135.0
"2009-11-09 00:02:00",1399970,7.219,174.4,6.495,1.287,12.18,104.0371,9.61,10.74,35.75,0,110.1,13.39,10.39,136.4
"2009-11-09 00:02:30",1399971,7.881,177.4,6.044,1.223,13.45,104.034,9.6,10.8,35.65,0,110.1,13.39,10.39,139.4
"2009-11-09 00:03:00",1399972,6.927,173.2,6.076,1.291,11.64,104.032,9.6,10.69,35.21,0,110.1,13.39,10.38,135.2
"2009-11-09 00:03:30",1399973,6.912,174.7,6.667,1.267,11.99,104.0312,9.59,10.74,35.03,0,110.1,13.39,10.38,136.7
"2009-11-09 00:04:00",1399974,6.196,169.6,3.536,0.8,10.19,104.0312,9.59,10.59,34.81,0,110.1,13.39,10.38,131.6
"2009-11-09 00:04:30",1399975,6.56,173.7,6.083,1.176,12.11,104.0312,9.59,10.77,34.83,0,110.1,13.39,10.38,135.7
"2009-11-09 00:05:00",1399976,6.568,172.1,6.266,1.246,11.93,104.0312,9.59,10.63,34.97,0,110.1,13.39,10.38,134.1
"2009-11-09 00:05:30",1399977,7.345,176.5,6.751,1.272,13.58,104.0312,9.59,10.79,35.08,0,110.1,13.39,10.38,138.5
"2009-11-09 00:06:00",1399978,7.731,178.8,5.605,1.199,14.2,104.0312,9.59,10.85,34.78,0,110.1,13.39,10.38,140.8
"2009-11-09 00:06:30",1399979,7.4,175.3,6.831,1.33,12.56,104.0312,9.59,10.7,34.42,0,110.1,13.39,10.38,137.3
"2009-11-09 00:07:00",1399980,6.47,170.8,5.217,0.923,10.74,104.0312,9.59,10.74,34.16,0,110.1,13.39,10.38,132.8
"2009-11-09 00:07:30",1399981,6.142,171.7,1.08,0.087,9.82,104.0312,9.59,10.58,34.06,0,110.1,13.42,10.38,133.7
"2009-11-09 00:08:00",1399982,7.038,177.9,6.523,1.272,12.07,104.0312,9.59,10.75,34.87,0,110.1,13.39,10.38,139.9
"2009-11-09 00:08:30",1399983,7.939,179.9,6.492,1.247,13.14,104.0312,9.59,10.73,34.91,0,110.1,13.39,10.38,141.9
"2009-11-09 00:09:00",1399984,7.768,177.5,6.868,1.129,14.11,104.0312,9.59,10.81,34.12,0,110.1,13.39,10.38,139.5
"2009-11-09 00:09:30",1399985,7.652,178.7,6.168,1.143,13.97,104.0312,9.59,10.85,33.9,0,110.1,13.39,10.38,140.7
"2009-11-09 00:10:00",1399986,6.893,173.5,6.596,1.316,12.06,104.0312,9.59,10.71,33.75,0,110.1,13.39,10.38,135.5
"2009-11-09 00:10:30",1399987,5.35,166.6,0.446,0.095,9.55,104.0312,9.59,10.58,33.98,0,110.1,13.42,10.38,128.6
"2009-11-09 00:11:00",1399988,5.244,165.8,0.186,0.033,9.7,104.0312,9.59,10.58,34.42,0,110.1,13.42,10.38,127.8
"2009-11-09 00:11:30",1399989,5.306,166,0.392,0.052,10.27,104.0312,9.59,10.6,34.6,0,110.1,13.42,10.38,128.0
"2009-11-09 00:12:00",1399990,6.657,173.7,7.079,1.357,13.78,104.0312,9.59,10.84,34.82,0,110.2,13.39,10.38,135.7
"2009-11-09 00:12:30",1399991,7.497,179.1,6.295,1.141,14.53,104.0312,9.59,10.89,34.38,0,110.1,13.39,10.38,141.1
"2009-11-09 00:13:00",1399992,7.822,181.4,6.22,1.146,14.02,104.0312,9.59,10.82,34.12,0,110.1,13.39,10.38,143.4
"2009-11-09 00:13:30",1399993,6.797,177.2,5.239,1.031,11.16,104.0312,9.59,10.75,34.48,0,110.1,13.39,10.38,139.2
"2009-11-09 00:14:00",1399994,6.488,176.3,3.32,0.47,9.81,104.0312,9.59,10.59,34.78,0,110.1,13.42,10.38,138.3
"2009-11-09 00:14:30",1399995,6.627,176.8,0.645,0.083,9.62,104.0312,9.59,10.58,35.26,0,110.1,13.42,10.38,138.8
"2009-11-09 00:15:00",1399996,7.214,179.9,5.692,1.057,11.42,104.0312,9.59,10.68,35.68,0,110.1,13.39,10.38,141.9
"2009-11-09 00:15:30",1399997,8.45,187.2,5.572,1.222,14.15,104.0312,9.59,10.79,35.92,0,110.1,13.39,10.38,149.2
"2009-11-09 00:16:00",1399998,8.36,186.6,5.418,1.108,14.05,104.0312,9.59,10.88,35.87,0,110.1,13.39,10.38,148.6
"2009-11-09 00:16:30",1399999,8.37,186.4,5.741,1.154,13.78,104.0312,9.59,10.84,35.63,0,110.1,13.4,10.38,148.4
"2009-11-09 00:17:00",1400000,7.262,181.6,5.582,1.26,11.03,104.0309,9.59,10.73,35.41,0,110.1,13.4,10.38,143.6
"2009-11-09 00:17:30",1400001,6.61,179.1,0.891,0.074,9.2,104.0286,9.59,10.56,35.49,0,110.1,13.43,10.37,141.1
"2009-11-09 00:18:00",1400002,6.715,180,2.462,0.469,9.73,104.025,9.58,10.56,35.63,0,110.1,13.4,10.36,142.0
"2009-11-09 00:18:30",1400003,7.548,183.2,6.929,1.278,11.65,104.0227,9.57,10.63,35.54,0,110.1,13.4,10.36,145.2
"2009-11-09 00:19:00",1400004,8.58,188.6,7.037,1.113,14.3,104.0201,9.57,10.81,35.47,0,110.1,13.4,10.35,150.6
"2009-11-09 00:19:30",1400005,8.76,190.3,5.677,1.064,14.48,104.0182,9.56,10.84,35.42,0,110.1,13.4,10.35,152.3
"2009-11-09 00:20:00",1400006,8.2,186,6.515,1.233,13.75,104.0148,9.55,10.87,35.13,0,110.1,13.4,10.34,148.0
"2009-11-09 00:20:30",1400007,6.669,179.9,3.745,0.944,10.11,104.0171,9.56,10.63,34.76,0,110.1,13.4,10.34,141.9
"2009-11-09 00:21:00",1400008,6.313,180.3,1.154,0.098,9.2,104.0145,9.55,10.55,35.1,0,110.1,13.43,10.34,142.3
"2009-11-09 00:21:30",1400009,6.695,183.9,4.434,0.992,10.2,104.01,9.54,10.55,35.25,0,110.1,13.4,10.32,145.9
"2009-11-09 00:22:00",1400010,7.252,188.5,6.596,1.251,12.18,104.0055,9.53,10.72,35.75,0,110.1,13.4,10.31,150.5
"2009-11-09 00:22:30",1400011,6.967,187.7,5.792,1.23,11.91,104.0021,9.52,10.65,35.88,0,110.1,13.4,10.30,149.7
"2009-11-09 00:23:00",1400012,8.6,195.6,5.138,0.821,14.82,104.005,9.53,10.85,36.21,0,110.1,13.4,10.31,157.6
"2009-11-09 00:23:30",1400013,8.61,195.3,4.812,1.046,14.53,104.0033,9.52,10.86,36.33,0,110.1,13.4,10.31,157.3
"2009-11-09 00:24:00",1400014,7.532,185.8,6.26,1.088,10.89,104.002,9.52,10.64,36.03,0,110.1,13.4,10.30,147.8
"2009-11-09 00:24:30",1400015,6.84,182.1,0.405,0.061,9.28,104.0014,9.52,10.58,35.79,0,110.1,13.43,10.30,144.1
"2009-11-09 00:25:00",1400016,7.811,187.7,6.462,1.262,11.49,104.0008,9.52,10.66,35.89,0,110.1,13.4,10.30,149.7
"2009-11-09 00:25:30",1400017,7.733,188.3,6.493,1.226,11.94,104.0034,9.52,10.7,35.99,0,110.1,13.4,10.31,150.3
"2009-11-09 00:26:00",1400018,6.967,184.6,4.606,0.882,10.8,104.0064,9.53,10.63,35.96,0,110.1,13.4,10.32,146.6
"2009-11-09 00:26:30",1400019,9.01,194.5,4.269,0.581,14.91,104.0081,9.53,10.85,36.21,0,110.1,13.4,10.32,156.5
"2009-11-09 00:27:00",1400020,8.51,191.9,6.041,0.998,13.85,104.0081,9.53,10.83,36.15,0,110.1,13.4,10.32,153.9
"2009-11-09 00:27:30",1400021,7.046,184.9,5.907,1.047,11,104.0079,9.53,10.62,35.92,0,110.1,13.4,10.32,146.9
"2009-11-09 00:28:00",1400022,6.587,181.6,2.395,0.062,9.69,104.0102,9.54,10.65,35.87,0,110.1,13.43,10.33,143.6
"2009-11-09 00:28:30",1400023,7.593,185.2,6.426,1.287,11.02,104.0114,9.54,10.59,35.76,0,110.1,13.4,10.33,147.2
"2009-11-09 00:29:00",1400024,7.057,182.7,5.326,0.979,10.8,104.0123,9.55,10.61,35.79,0,110.1,13.39,10.33,144.7
"2009-11-09 00:29:30",1400025,7.671,185.4,6.618,1.303,12.1,104.0089,9.54,10.72,35.84,0,110.1,13.39,10.32,147.4
"2009-11-09 00:30:00",1400026,8.7,190.4,4.703,0.997,14.61,104.0028,9.52,10.77,35.86,0,110.1,13.4,10.31,152.4
"2009-11-09 00:30:30",1400027,8.33,188.6,5.92,1.208,13.57,104.0032,9.52,10.76,35.84,0,110.1,13.4,10.31,150.6
"2009-11-09 00:31:00",1400028,7.019,181.1,5.783,1.07,11.28,103.9915,9.49,10.69,35.77,0,110.1,13.4,10.28,143.1
"2009-11-09 00:31:30",1400029,7.428,181.9,6.293,1.259,11.06,103.9884,9.48,10.55,35.63,0,110.1,13.39,10.27,143.9
"2009-11-09 00:32:00",1400030,7.479,183.5,6.653,1.241,11.36,103.9914,9.49,10.63,35.56,0,110.1,13.4,10.28,145.5
"2009-11-09 00:32:30",1400031,6.454,178.5,2.506,0.051,10.01,103.9894,9.49,10.6,35.38,0,110.1,13.43,10.27,140.5
"2009-11-09 00:33:00",1400032,7.405,182.4,6.366,1.244,11.42,103.9863,9.48,10.56,35.28,0,110.1,13.4,10.26,144.4
"2009-11-09 00:33:30",1400033,7.91,186,6.414,1.297,12.93,103.9895,9.49,10.71,35.31,0,110.1,13.4,10.27,148.0
"2009-11-09 00:34:00",1400034,7.978,186.4,6.278,1.29,13.37,103.9901,9.49,10.77,35.24,0,110.1,13.4,10.27,148.4
"2009-11-09 00:34:30",1400035,7.911,185.7,6.589,1.269,12.97,103.9887,9.48,10.66,35.08,0,110.1,13.4,10.27,147.7
"2009-11-09 00:35:00",1400036,7.34,183.6,6.45,1.254,11.52,103.9881,9.48,10.61,34.97,0,110.1,13.4,10.27,145.6
"2009-11-09 00:35:30",1400037,6.32,179,0.524,0.04,9.18,103.9931,9.5,10.48,34.84,0,110.1,13.4,10.28,141.0
"2009-11-09 00:36:00",1400038,7.401,185.1,6.607,1.304,11.34,103.9907,9.49,10.53,34.88,0,110.1,13.4,10.28,147.1
"2009-11-09 00:36:30",1400039,7.38,185,6.879,1.315,11.88,103.9907,9.49,10.63,34.95,0,110.1,13.4,10.28,147.0
"2009-11-09 00:37:00",1400040,7.038,183.2,6.378,1.206,12.04,103.9942,9.5,10.65,34.96,0,110.1,13.4,10.28,145.2
"2009-11-09 00:37:30",1400041,7.698,185.8,5.899,1.208,13.63,103.9945,9.5,10.72,34.94,0,110.1,13.4,10.29,147.8
"2009-11-09 00:38:00",1400042,7.535,184.3,5.934,1.179,14.09,103.9945,9.5,10.7,34.62,0,110.1,13.41,10.29,146.3
"2009-11-09 00:38:30",1400043,5.873,176,4.456,0.781,10.93,103.9972,9.51,10.66,34.46,0,110.1,13.41,10.29,138.0
"2009-11-09 00:39:00",1400044,5.986,175.7,4.911,0.977,9.96,103.9969,9.51,10.47,34.16,0,110.1,13.4,10.29,137.7
"2009-11-09 00:39:30",1400045,6.436,179.4,6.925,1.264,11.64,103.9966,9.51,10.59,34.39,0,110.1,13.4,10.29,141.4
"2009-11-09 00:40:00",1400046,5.858,175.6,3.35,0.779,10.08,103.9978,9.51,10.48,34.43,0,110.1,13.4,10.29,137.6
"2009-11-09 00:40:30",1400047,5.677,176.1,3.541,0.115,10.52,103.9972,9.51,10.59,34.52,0,110.1,13.44,10.29,138.1
"2009-11-09 00:41:00",1400048,7.971,186.7,5.153,0.938,13.99,103.9972,9.51,10.63,34.29,0,110.1,13.41,10.29,148.7
"2009-11-09 00:41:30",1400049,7.406,184,6.309,1.216,13.95,103.9975,9.51,10.72,34.21,0,110.1,13.41,10.29,146.0
"2009-11-09 00:42:00",1400050,6.776,179.7,6.811,1.298,12.29,103.9972,9.51,10.68,34.15,0,110.1,13.41,10.29,141.7
"2009-11-09 00:42:30",1400051,6.701,179.6,6.676,1.258,11.78,103.9972,9.51,10.62,34,0,110.1,13.41,10.29,141.6
"2009-11-09 00:43:00",1400052,5.93,174.8,4.366,0.868,10.25,103.9981,9.51,10.6,33.94,0,110.1,13.41,10.29,136.8
"2009-11-09 00:43:30",1400053,6.367,176.8,5.654,1.207,10.84,103.9978,9.51,10.47,33.86,0,110.1,13.41,10.29,138.8
"2009-11-09 00:44:00",1400054,5.964,174.7,3.963,0.891,10.28,103.9983,9.51,10.55,33.67,0,110.1,13.4,10.29,136.7
"2009-11-09 00:44:30",1400055,7.451,184.2,6.138,1.191,13.79,103.9978,9.51,10.64,33.73,0,110.1,13.4,10.29,146.2
"2009-11-09 00:45:00",1400056,7.768,185.9,5.656,1.1,13.93,103.9986,9.51,10.65,33.74,0,110.1,13.4,10.30,147.9
"2009-11-09 00:45:30",1400057,6.542,179.6,5.778,1.144,11.35,103.9983,9.51,10.62,33.73,0,110.1,13.4,10.29,141.6
"2009-11-09 00:46:00",1400058,6.557,179.3,6.692,1.193,11.64,103.9989,9.51,10.64,33.61,0,110.1,13.4,10.30,141.3
"2009-11-09 00:46:30",1400059,6.658,179.8,6.868,1.297,11.65,103.9986,9.51,10.58,33.43,0,110.1,13.4,10.30,141.8
"2009-11-09 00:47:00",1400060,5.747,174.9,0.591,0.095,9.49,103.9986,9.51,10.46,33.23,0,110.1,13.44,10.30,136.9
"2009-11-09 00:47:30",1400061,6.888,180.6,6.669,1.315,11.74,103.9986,9.51,10.61,33.38,0,110.1,13.4,10.30,142.6
"2009-11-09 00:48:00",1400062,7.801,184.3,6.199,1.222,13.23,103.9986,9.51,10.64,33.27,0,110.1,13.4,10.30,146.3
"2009-11-09 00:48:30",1400063,7.065,181.3,6.528,1.308,12.89,103.9986,9.51,10.7,33.31,0,110.1,13.4,10.30,143.3
"2009-11-09 00:49:00",1400064,7.207,180.9,6.732,1.293,12.3,103.9986,9.51,10.65,33.19,0,110.1,13.41,10.30,142.9
"2009-11-09 00:49:30",1400065,7.478,181.8,6.59,1.325,12.66,103.9986,9.51,10.64,33.09,0,110.1,13.41,10.30,143.8
"2009-11-09 00:50:00",1400066,6.449,177,5.827,1.082,10.98,103.9986,9.51,10.59,32.96,0,110.1,13.41,10.30,139.0
"2009-11-09 00:50:30",1400067,5.911,173.3,0.499,0.038,9.53,103.9986,9.51,10.45,32.7,0,110.1,13.44,10.30,135.3
"2009-11-09 00:51:00",1400068,6.546,176.5,5.532,1.104,11,103.9986,9.51,10.55,32.73,0,110.1,13.41,10.30,138.5
"2009-11-09 00:51:30",1400069,7.253,180.3,6.526,1.289,13.19,103.9986,9.51,10.67,32.84,0,110.1,13.41,10.30,142.3
"2009-11-09 00:52:00",1400070,6.454,176.1,6.18,1.206,11.86,103.9986,9.51,10.65,32.71,0,110.1,13.41,10.30,138.1
"2009-11-09 00:52:30",1400071,7.436,181.5,6.611,1.249,13.59,103.9981,9.51,10.68,32.62,0,110.1,13.41,10.29,143.5
"2009-11-09 00:53:00",1400072,7.174,179.1,6.568,1.288,12.81,103.9986,9.51,10.66,32.57,0,110.1,13.41,10.30,141.1
"2009-11-09 00:53:30",1400073,5.722,172,0.322,0.057,9.92,103.9986,9.51,10.46,32.33,0,110.1,13.44,10.30,134.0
"2009-11-09 00:54:00",1400074,5.804,172.7,0.426,0.042,9.71,103.9986,9.51,10.45,32.31,0,110.1,13.44,10.30,134.7
"2009-11-09 00:54:30",1400075,6.957,179.9,6.854,1.311,12.14,103.9986,9.51,10.71,32.59,0,110.1,13.41,10.30,141.9
"2009-11-09 00:55:00",1400076,7.872,184.3,5.351,1.157,13.73,103.9986,9.51,10.67,32.52,0,110.1,13.41,10.30,146.3
"2009-11-09 00:55:30",1400077,7.07,178.7,6.373,1.286,11.55,103.9986,9.51,10.46,32.26,0,110.1,13.41,10.30,140.7
"2009-11-09 00:56:00",1400078,7.229,180.7,6.801,1.333,12.33,103.9986,9.51,10.64,32.38,0,110.1,13.41,10.30,142.7
"2009-11-09 00:56:30",1400079,6.818,177.4,6.262,1.163,11.59,103.9984,9.51,10.59,32.29,0,110.1,13.41,10.30,139.4
"2009-11-09 00:57:00",1400080,6.594,175.7,5.875,1.094,11.49,103.9986,9.51,10.59,32.03,0,110.1,13.41,10.30,137.7
"2009-11-09 00:57:30",1400081,6.393,173.6,4.829,0.996,10.58,103.9986,9.51,10.46,31.8,0,110.1,13.41,10.30,135.6
"2009-11-09 00:58:00",1400082,7.557,179.5,6.644,1.246,13.29,103.9986,9.51,10.69,31.98,0,110.1,13.41,10.30,141.5
"2009-11-09 00:58:30",1400083,8.01,182.5,5.96,1.102,13.75,103.9986,9.51,10.64,31.85,0,110.1,13.41,10.30,144.5
"2009-11-09 00:59:00",1400084,7.06,178,6.108,1.275,11.78,103.9986,9.51,10.59,31.84,0,110.1,13.41,10.30,140.0
"2009-11-09 00:59:30",1400085,7.086,178.1,6.732,1.304,11.81,103.9984,9.51,10.56,31.78,0,110.1,13.41,10.30,140.1
"2009-11-09 01:00:00",1400086,7.235,178.6,6.608,1.29,12.33,103.9986,9.51,10.6,31.84,0,110.1,13.41,10.30,140.6
"2009-11-09 01:00:30",1400087,6.153,173.1,0.412,0.06,10.17,103.9986,9.51,10.51,31.71,0,110.1,13.44,10.30,135.1
"2009-11-09 01:01:00",1400088,7.312,179.7,6.853,1.333,12.08,103.9986,9.51,10.57,31.76,0,110.1,13.41,10.30,141.7
"2009-11-09 01:01:30",1400089,8.24,185.1,6.021,1.206,13.76,103.9986,9.51,10.67,31.91,0,110.1,13.4,10.30,147.1
"2009-11-09 01:02:00",1400090,7.973,185,6.577,1.298,12.59,103.9986,9.51,10.61,31.89,0,110.1,13.4,10.30,147.0
"2009-11-09 01:02:30",1400091,7.569,183.3,6.632,1.244,11.69,103.9986,9.51,10.59,31.88,0,110.1,13.4,10.30,145.3
"2009-11-09 01:03:00",1400092,6.768,178.2,2.475,0.535,9.72,103.9986,9.51,10.54,31.7,0,110.1,13.4,10.30,140.2
"2009-11-09 01:03:30",1400093,7.999,183.2,6.591,1.264,12.16,103.9986,9.51,10.5,31.63,0,110.1,13.4,10.30,145.2
"2009-11-09 01:04:00",1400094,7.812,181.5,6.215,1.264,12.41,103.9986,9.51,10.61,31.73,0,110.1,13.4,10.30,143.5
"2009-11-09 01:04:30",1400095,8,182,6.585,1.32,13.27,103.9986,9.51,10.73,31.82,0,110.1,13.4,10.30,144.0
"2009-11-09 01:05:00",1400096,8.33,183.9,6.134,1.151,13.57,103.9986,9.51,10.7,31.67,0,110.1,13.41,10.30,145.9
"2009-11-09 01:05:30",1400097,7.161,177.5,6.131,1.193,11.28,103.9986,9.51,10.52,31.45,0,110.1,13.41,10.30,139.5
"2009-11-09 01:06:00",1400098,7.347,177.7,6.572,1.288,11.42,103.9986,9.51,10.56,31.42,0,110.1,13.41,10.30,139.7
"2009-11-09 01:06:30",1400099,6.276,172.4,0.661,0.09,9.71,103.9986,9.51,10.45,31.3,0,110.1,13.45,10.30,134.4
"2009-11-09 01:07:00",1400100,7.349,177.2,6.769,1.29,11.85,103.9986,9.51,10.47,31.31,0,110.1,13.41,10.30,139.2
"2009-11-09 01:07:30",1400101,7.313,178.6,6.86,1.295,12.91,103.9986,9.51,10.75,31.58,0,110.1,13.41,10.30,140.6
"2009-11-09 01:08:00",1400102,8.26,184.9,4.977,1.215,14.15,103.9986,9.51,10.73,31.52,0,110.1,13.41,10.30,146.9
"2009-11-09 01:08:30",1400103,8.28,184,5.62,1.226,14.01,103.9986,9.51,10.77,31.64,0,110.1,13.41,10.30,146.0
"2009-11-09 01:09:00",1400104,7.436,178.5,6.516,1.205,11,103.9986,9.51,10.52,31.41,0,110.1,13.41,10.30,140.5
"2009-11-09 01:09:30",1400105,6.996,175.9,5.868,1.053,10.82,103.9986,9.51,10.56,31.45,0,110.1,13.41,10.30,137.9
"2009-11-09 01:10:00",1400106,6.355,173.2,1.2,0.085,9.74,103.9986,9.51,10.46,31.4,0,110.1,13.45,10.30,135.2
"2009-11-09 01:10:30",1400107,7.037,176.5,5.919,1.16,11.72,103.9986,9.51,10.65,31.66,0,110.1,13.41,10.30,138.5
"2009-11-09 01:11:00",1400108,8.32,181.2,5.666,1.059,14.34,103.9986,9.51,10.71,31.68,0,110.1,13.41,10.30,143.2
"2009-11-09 01:11:30",1400109,8.13,179.5,5.959,1.235,14.25,103.9986,9.51,10.79,31.74,0,110.1,13.41,10.30,141.5
"2009-11-09 01:12:00",1400110,7.343,177,6.61,1.34,12.21,103.9986,9.51,10.59,31.56,0,110.1,13.41,10.30,139.0
"2009-11-09 01:12:30",1400111,7.17,176.3,6.663,1.3,11.62,103.9986,9.51,10.62,31.58,0,110.1,13.41,10.30,138.3
"2009-11-09 01:13:00",1400112,6.059,170.6,0.659,0.056,9.47,103.9986,9.51,10.46,31.52,0,110.1,13.45,10.30,132.6
"2009-11-09 01:13:30",1400113,5.928,171.3,0.763,0.1,9.79,103.9986,9.51,10.46,31.55,0,110.1,13.45,10.30,133.3
"2009-11-09 01:14:00",1400114,7.312,176.7,6.558,1.291,12.57,103.9986,9.51,10.59,31.74,0,110.1,13.41,10.30,138.7
"2009-11-09 01:14:30",1400115,7.917,179.2,5.148,1.096,14.44,103.9986,9.51,10.73,31.86,0,110.1,13.41,10.30,141.2
"2009-11-09 01:15:00",1400116,8.02,180.3,3.732,0.997,14.81,103.9986,9.51,10.8,31.92,0,110.1,13.41,10.30,142.3
"2009-11-09 01:15:30",1400117,7.432,176.4,6.118,1.269,13.1,103.9986,9.51,10.7,31.83,0,110.1,13.41,10.30,138.4
"2009-11-09 01:16:00",1400118,6.386,168.5,5.401,1.012,9.81,103.9986,9.51,10.45,31.6,0,110.1,13.41,10.30,130.5
"2009-11-09 01:16:30",1400119,5.927,165.5,0.465,0.037,9.27,103.9981,9.51,10.46,31.59,0,110.1,13.44,10.29,127.5
"2009-11-09 01:17:00",1400120,6.631,168.2,5.548,1.169,10.73,103.9938,9.5,10.45,31.59,0,110.1,13.41,10.28,130.2
"2009-11-09 01:17:30",1400121,7.028,169.7,6.19,1.316,12.1,103.9885,9.48,10.59,31.76,0,110.1,13.41,10.27,131.7
"2009-11-09 01:18:00",1400122,8.21,172.2,5.032,1.261,13.88,103.9786,9.46,10.74,31.91,0,110.1,13.41,10.24,134.2
"2009-11-09 01:18:30",1400123,8.86,166.7,5.083,0.847,14.57,103.9687,9.43,10.75,31.77,0,110.1,13.41,10.22,128.7
"2009-11-09 01:19:00",1400124,7.876,159.4,7.029,1.297,13.1,103.965,9.42,10.6,31.14,0,110.1,13.4,10.21,121.4
"2009-11-09 01:19:30",1400125,5.298,153.9,2.009,0.147,9.08,103.9648,9.42,10.43,31.3,0,110.1,13.44,10.21,115.9
"2009-11-09 01:20:00",1400126,5.018,153.7,8.87,0.433,9.18,103.9648,9.42,10.42,31.16,0,110.1,13.44,10.21,115.7
"2009-11-09 01:20:30",1400127,5.906,163.6,4.62,0.892,10.07,103.9648,9.42,10.49,31.54,0,110.1,13.41,10.21,125.6
"2009-11-09 01:21:00",1400128,6.847,168.1,6.932,1.313,12.42,103.9648,9.42,10.54,31.86,0,110.1,13.41,10.21,130.1
"2009-11-09 01:21:30",1400129,7.297,168.6,6.969,1.204,13.61,103.9648,9.42,10.61,32.04,0,110.1,13.41,10.21,130.6
"2009-11-09 01:22:00",1400130,7.971,173,4.87,0.55,14.95,103.9648,9.42,10.71,32.24,0,110.1,13.41,10.21,135.0
"2009-11-09 01:22:30",1400131,6.566,166.5,6.654,1.189,11.49,103.9616,9.42,10.55,32.1,0,110.1,13.41,10.20,128.5
"2009-11-09 01:23:00",1400132,5.919,158.4,2.12,0.192,9.07,103.9552,9.4,10.39,31.65,0,110.1,13.45,10.18,120.4
"2009-11-09 01:23:30",1400133,5.878,154,1.705,0.131,9.14,103.9464,9.38,10.39,31.43,0,110.1,13.45,10.16,116.0
"2009-11-09 01:24:00",1400134,6.613,163.6,6.553,1.336,11.69,103.9433,9.37,10.52,31.68,0,110.1,13.41,10.15,125.6
"2009-11-09 01:24:30",1400135,6.699,166.9,6.329,1.321,12.26,103.9354,9.35,10.57,32.2,0,110.1,13.42,10.13,128.9
"2009-11-09 01:25:00",1400136,7.605,169.2,6.018,1.329,13.73,103.9309,9.34,10.65,32.4,0,110.1,13.42,10.12,131.2
"2009-11-09 01:25:30",1400137,8.53,171.6,2.861,0.933,14.36,103.9309,9.34,10.68,32.48,0,110.1,13.41,10.12,133.6
"2009-11-09 01:26:00",1400138,7.418,165.8,5.94,1.221,11.9,103.9309,9.34,10.52,32.4,0,110.1,13.41,10.12,127.8
"2009-11-09 01:26:30",1400139,6.588,161.4,2.427,0.202,9.19,103.9309,9.34,10.34,32.35,0,110.1,13.45,10.12,123.4
"2009-11-09 01:27:00",1400140,7.469,168.2,5.598,1.114,11.41,103.9278,9.33,10.45,32.59,0,110.1,13.41,10.11,130.2
"2009-11-09 01:27:30",1400141,6.753,164,6.494,0.868,10.94,103.9187,9.31,10.48,32.63,0,110.1,13.42,10.09,126.0
"2009-11-09 01:28:00",1400142,7.073,170.5,5.298,1.054,11.26,103.9032,9.27,10.5,32.57,0,110.1,13.42,10.05,132.5
"2009-11-09 01:28:30",1400143,8.55,177.6,5.538,0.67,14.82,103.897,9.25,10.62,32.79,0,110.1,13.42,10.03,139.6
"2009-11-09 01:29:00",1400144,8.01,174.9,4.957,1.055,13.48,103.897,9.25,10.54,32.75,0,110.1,13.42,10.03,136.9
"2009-11-09 01:29:30",1400145,6.063,161.2,5.035,0.448,9.62,103.897,9.25,10.39,32.79,0,110.1,13.42,10.03,123.2
"2009-11-09 01:30:00",1400146,6.572,170.8,10.24,1.433,10.65,103.897,9.25,10.34,32.84,0,110.1,13.41,10.03,132.8
"2009-11-09 01:30:30",1400147,6.289,167.6,5.999,0.924,9.99,103.8933,9.24,10.38,32.96,0,110.1,13.41,10.03,129.6
"2009-11-09 01:31:00",1400148,7.822,171.2,7.345,1.226,12.06,103.8809,9.21,10.35,32.83,0,110.1,13.42,9.99,133.2
"2009-11-09 01:31:30",1400149,8.04,169.9,6.453,1.533,11.97,103.8786,9.2,10.4,32.57,0,110.1,13.42,9.99,131.9
"2009-11-09 01:32:00",1400150,9.22,174.1,4.861,0.945,14.01,103.8679,9.18,10.54,32.71,0,110.1,13.42,9.96,136.1
"2009-11-09 01:32:30",1400151,8.16,176.4,8.33,1.31,12.9,103.8631,9.16,10.46,32.86,0,110.1,13.41,9.95,138.4
"2009-11-09 01:33:00",1400152,6.534,174.2,3.457,0.763,9.61,103.8631,9.16,10.3,32.94,0,110.1,13.41,9.95,136.2
"2009-11-09 01:33:30",1400153,6.88,176.7,5.076,1.144,10.84,103.8631,9.16,10.35,33.34,0,110.1,13.41,9.95,138.7
"2009-11-09 01:34:00",1400154,7.084,174.5,5.772,1.164,10.75,103.8631,9.16,10.32,33.53,0,110.1,13.41,9.95,136.5
"2009-11-09 01:34:30",1400155,7.084,171.6,5.63,1.278,11.35,103.8549,9.14,10.24,33.26,0,110.1,13.41,9.93,133.6
"2009-11-09 01:35:00",1400156,6.733,170.5,7.64,1.229,11.07,103.8326,9.09,10.31,33.36,0,110.1,13.41,9.87,132.5
"2009-11-09 01:35:30",1400157,7.636,163.6,7.138,1.307,12.21,103.8295,9.08,10.37,33.26,0,110.1,13.41,9.86,125.6
"2009-11-09 01:36:00",1400158,7.359,163.1,5.162,1.301,11.88,103.8292,9.08,10.34,33.26,0,110.1,13.41,9.86,125.1
"2009-11-09 01:36:30",1400159,7.654,164.7,6.699,1.251,12.81,103.8292,9.08,10.38,33.29,0,110.1,13.41,9.86,126.7
"2009-11-09 01:37:00",1400160,7.128,158.7,7.233,1.248,10.96,103.8292,9.08,10.22,33.25,0,110.1,13.41,9.86,120.7
"2009-11-09 01:37:30",1400161,8.59,167.5,6.256,1.234,12.56,103.8292,9.08,10.25,32.76,0,110.1,13.41,9.86,129.5
"2009-11-09 01:38:00",1400162,7.138,160.9,4.489,0.663,10.31,103.8292,9.08,10.23,30.15,0,110.1,13.41,9.86,122.9
"2009-11-09 01:38:30",1400163,8.91,167.1,6.711,1.339,12.24,103.8292,9.08,10.17,30.33,0,110.1,13.41,9.86,129.1
"2009-11-09 01:39:00",1400164,9.55,167.8,7.171,1.281,12.49,103.8292,9.08,10.28,29.99,0,110.1,13.42,9.86,129.8
"2009-11-09 01:39:30",1400165,8.75,158.6,7.41,1.127,11.86,103.8292,9.08,10.35,29.04,0,110.1,13.42,9.86,120.6
"2009-11-09 01:40:00",1400166,9.25,169.5,6.177,1.302,13.26,103.8292,9.08,10.29,29.92,0,110.1,13.41,9.86,131.5
"2009-11-09 01:40:30",1400167,9.05,162.5,6.563,1.362,11.66,103.8292,9.08,10.22,28.86,0,110.1,13.41,9.86,124.5
"2009-11-09 01:41:00",1400168,8.79,162.4,7.392,1.25,11.23,103.8292,9.08,10.2,28.65,0,110.1,13.41,9.86,124.4
"2009-11-09 01:41:30",1400169,7.509,159,3.162,0.399,9.69,103.8292,9.08,10.16,27.83,0,110.1,13.45,9.86,121.0
"2009-11-09 01:42:00",1400170,9.73,168.2,6.333,1.331,12.92,103.8292,9.08,10.2,28.15,0,110.1,13.42,9.86,130.2
"2009-11-09 01:42:30",1400171,8.75,162.9,7.33,1.259,12.58,103.8292,9.08,10.24,28.37,0,110.1,13.42,9.86,124.9
"2009-11-09 01:43:00",1400172,9.49,160.3,6.462,1.193,13.16,103.8289,9.08,10.31,28.21,0,110.1,13.42,9.86,122.3
"2009-11-09 01:43:30",1400173,9.7,163.4,6.034,1.118,12.71,103.8275,9.07,10.25,27.82,0,110.1,13.42,9.86,125.4
"2009-11-09 01:44:00",1400174,8.25,152.3,5.931,1.169,10.19,103.8244,9.06,10.19,27.49,0,110.1,13.41,9.85,114.3
"2009-11-09 01:44:30",1400175,8.67,149.2,3.804,0.898,9.19,103.8185,9.05,10.03,26.39,0,110.1,13.41,9.83,111.2
"2009-11-09 01:45:00",1400176,9.94,157.4,5.832,1.201,12.44,103.8052,9.02,10.23,26.42,0,110.1,13.42,9.80,119.4
"2009-11-09 01:45:30",1400177,10.08,159.2,6.279,1.119,12.85,103.7959,8.99,10.2,26.66,0,110.1,13.42,9.78,121.2
"2009-11-09 01:46:00",1400178,10.12,160.4,5.868,1.192,13.27,103.7953,8.99,10.33,26.97,0,110.1,13.42,9.77,122.4
"2009-11-09 01:46:30",1400179,10.57,161,4.668,0.926,13.71,103.7953,8.99,10.31,26.57,0,110.1,13.42,9.77,123.0
"2009-11-09 01:47:00",1400180,9.68,156,6.304,1.485,10.3,103.7953,8.99,10.05,27.05,0,110.1,13.41,9.77,118.0
"2009-11-09 01:47:30",1400181,9.76,153.5,5.936,1.001,9.87,103.795,8.99,10,26.38,0,110.1,13.41,9.77,115.5
"2009-11-09 01:48:00",1400182,10.52,154.7,6.582,1.251,11.19,103.7883,8.97,10.14,25.96,0,110.1,13.41,9.76,116.7